| time (UTC) | temp F | wind direction | speed MPH | gust MPH | rain 1hr in | rain 24hr in | rain mn in | humidity % | barometer mb |
| 20260503222403 | 59 | 0 | 0.0 | 0.0 | 0.00 | 0.00 | 0.00 | 83 | 1011.3 |
| 20260503222003 | 60 | 0 | 0.0 | 0.0 | 0.00 | 0.00 | 0.00 | 83 | 1011.5 |
| 20260503221603 | 59 | 0 | 0.0 | 0.0 | 0.00 | 0.00 | 0.00 | 83 | 1011.5 |
| 20260503221415 | 59 | 0 | 0.0 | 0.0 | 0.00 | 0.00 | 0.00 | 83 | 1011.4 |
| 20260503220804 | 60 | 0 | 0.0 | 0.0 | 0.00 | 0.00 | 0.00 | 83 | 1011.6 |
| 20260503220404 | 60 | 0 | 0.0 | 0.0 | 0.00 | 0.00 | 0.00 | 82 | 1011.7 |
| 20260503220007 | 59 | 0 | 0.0 | 0.0 | 0.00 | 0.00 | 0.00 | 83 | 1011.4 |
| 20260503215604 | 59 | 0 | 0.0 | 0.0 | 0.00 | 0.00 | 0.00 | 84 | 1011.5 |
| 20260503215417 | 59 | 0 | 0.0 | 0.0 | 0.00 | 0.00 | 0.00 | 84 | 1011.4 |
| 20260503215016 | 59 | 0 | 0.0 | 0.0 | 0.00 | 0.00 | 0.00 | 84 | 1011.5 |
| 20260503214615 | 59 | 0 | 0.0 | 0.0 | 0.00 | 0.00 | 0.00 | 84 | 1011.4 |
| 20260503214214 | 60 | 0 | 0.0 | 0.0 | 0.00 | 0.00 | 0.00 | 83 | 1011.4 |
| 20260503213603 | 59 | 0 | 0.0 | 0.0 | 0.00 | 0.00 | 0.00 | 84 | 1011.3 |
| 20260503213204 | 60 | 0 | 0.0 | 0.0 | 0.00 | 0.00 | 0.00 | 84 | 1011.2 |
| 20260503213013 | 60 | 0 | 0.0 | 0.0 | 0.00 | 0.00 | 0.00 | 83 | 1011.3 |
| 20260503212405 | 60 | 0 | 0.0 | 0.0 | 0.00 | 0.00 | 0.00 | 82 | 1011.4 |
| 20260503212003 | 60 | 0 | 0.0 | 0.0 | 0.00 | 0.00 | 0.00 | 81 | 1011.5 |
| 20260503211816 | 60 | 0 | 0.0 | 0.0 | 0.00 | 0.00 | 0.00 | 81 | 1011.4 |
| 20260503211203 | 59 | 0 | 0.0 | 0.0 | 0.00 | 0.00 | 0.00 | 84 | 1011.4 |
| 20260503210804 | 59 | 0 | 0.0 | 0.0 | 0.00 | 0.00 | 0.00 | 84 | 1011.1 |
| 20260503210403 | 59 | 0 | 0.0 | 0.0 | 0.00 | 0.00 | 0.00 | 83 | 1011.2 |
| 20260503210213 | 59 | 0 | 0.0 | 0.0 | 0.00 | 0.00 | 0.00 | 83 | 1011.1 |
| 20260503205603 | 60 | 0 | 0.0 | 0.0 | 0.00 | 0.00 | 0.00 | 82 | 1011.1 |
| 20260503205203 | 60 | 0 | 0.0 | 0.0 | 0.00 | 0.00 | 0.00 | 82 | 1011.3 |
| 20260503205017 | 60 | 0 | 0.0 | 0.0 | 0.00 | 0.00 | 0.00 | 82 | 1011.2 |
| 20260503204404 | 60 | 135 | 0.0 | 2.0 | 0.00 | 0.00 | 0.00 | 81 | 1011.0 |
| 20260503204215 | 60 | 135 | 0.0 | 2.0 | 0.00 | 0.00 | 0.00 | 81 | 1011.3 |
| 20260503203604 | 60 | 135 | 0.0 | 2.0 | 0.00 | 0.00 | 0.00 | 81 | 1010.9 |
| 20260503203204 | 60 | 0 | 0.0 | 0.0 | 0.00 | 0.00 | 0.00 | 82 | 1010.9 |
| 20260503202804 | 60 | 0 | 0.0 | 0.0 | 0.00 | 0.00 | 0.00 | 82 | 1011.1 |
| 20260503202404 | 60 | 0 | 0.0 | 0.0 | 0.00 | 0.00 | 0.00 | 81 | 1011.3 |
| 20260503202004 | 60 | 0 | 0.0 | 0.0 | 0.00 | 0.00 | 0.00 | 82 | 1011.2 |
| 20260503201604 | 60 | 0 | 0.0 | 0.0 | 0.00 | 0.00 | 0.00 | 82 | 1011.2 |
| 20260503201416 | 60 | 0 | 0.0 | 0.0 | 0.00 | 0.00 | 0.00 | 82 | 1011.2 |
| 20260503200803 | 61 | 0 | 0.0 | 0.0 | 0.00 | 0.00 | 0.00 | 82 | 1011.2 |
| 20260503200403 | 61 | 0 | 0.0 | 0.0 | 0.00 | 0.00 | 0.00 | 81 | 1011.3 |
| 20260503200005 | 61 | 0 | 0.0 | 0.0 | 0.00 | 0.00 | 0.00 | 82 | 1011.2 |
| 20260503195813 | 61 | 0 | 0.0 | 0.0 | 0.00 | 0.00 | 0.00 | 81 | 1011.1 |
| 20260503195204 | 61 | 0 | 0.0 | 0.0 | 0.00 | 0.00 | 0.00 | 80 | 1011.2 |
| 20260503194803 | 62 | 0 | 0.0 | 0.0 | 0.00 | 0.00 | 0.00 | 79 | 1011.2 |
| 20260503194404 | 62 | 0 | 0.0 | 0.0 | 0.00 | 0.00 | 0.00 | 80 | 1011.2 |
| 20260503194004 | 62 | 0 | 0.0 | 0.0 | 0.00 | 0.00 | 0.00 | 80 | 1011.1 |
| 20260503193815 | 62 | 0 | 0.0 | 0.0 | 0.00 | 0.00 | 0.00 | 80 | 1011.0 |
| 20260503193203 | 63 | 0 | 0.0 | 0.0 | 0.00 | 0.00 | 0.00 | 78 | 1011.0 |
| 20260503192804 | 63 | 0 | 0.0 | 0.0 | 0.00 | 0.00 | 0.00 | 78 | 1011.1 |
| 20260503192404 | 63 | 0 | 0.0 | 0.0 | 0.00 | 0.00 | 0.00 | 78 | 1011.1 |
| 20260503192004 | 64 | 0 | 0.0 | 0.0 | 0.00 | 0.00 | 0.00 | 77 | 1011.1 |
| 20260503191604 | 64 | 0 | 0.0 | 0.0 | 0.00 | 0.00 | 0.00 | 77 | 1011.2 |
| 20260503191203 | 64 | 90 | 0.0 | 2.0 | 0.00 | 0.00 | 0.00 | 76 | 1011.1 |
| 20260503190805 | 64 | 90 | 0.0 | 2.0 | 0.00 | 0.00 | 0.00 | 76 | 1011.1 |
| 20260503190404 | 64 | 103 | 0.0 | 2.0 | 0.00 | 0.00 | 0.00 | 76 | 1010.8 |
| 20260503190005 | 65 | 99 | 0.0 | 4.0 | 0.00 | 0.00 | 0.00 | 76 | 1011.0 |
| 20260503185603 | 65 | 90 | 0.0 | 4.0 | 0.00 | 0.00 | 0.00 | 75 | 1010.8 |
| 20260503185204 | 65 | 87 | 0.0 | 4.0 | 0.00 | 0.00 | 0.00 | 75 | 1010.7 |
| 20260503184804 | 65 | 89 | 1.0 | 4.0 | 0.00 | 0.00 | 0.00 | 73 | 1010.6 |
| 20260503184403 | 66 | 78 | 2.0 | 6.0 | 0.00 | 0.00 | 0.00 | 73 | 1010.7 |
| 20260503184003 | 66 | 74 | 3.0 | 6.0 | 0.00 | 0.00 | 0.00 | 72 | 1010.7 |
| 20260503183604 | 66 | 81 | 4.0 | 6.0 | 0.00 | 0.00 | 0.00 | 72 | 1010.6 |
| 20260503183204 | 66 | 82 | 2.0 | 4.0 | 0.00 | 0.00 | 0.00 | 72 | 1010.6 |
| 20260503182804 | 66 | 79 | 2.0 | 4.0 | 0.00 | 0.00 | 0.00 | 71 | 1010.6 |
| 20260503182404 | 66 | 71 | 1.0 | 4.0 | 0.00 | 0.00 | 0.00 | 71 | 1010.6 |
| 20260503182005 | 66 | 80 | 1.0 | 4.0 | 0.00 | 0.00 | 0.00 | 70 | 1010.5 |
| 20260503181604 | 67 | 87 | 1.0 | 4.0 | 0.00 | 0.00 | 0.00 | 69 | 1010.6 |
| 20260503181203 | 67 | 90 | 1.0 | 6.0 | 0.00 | 0.00 | 0.00 | 69 | 1010.4 |
| 20260503180803 | 67 | 89 | 2.0 | 6.0 | 0.00 | 0.00 | 0.00 | 67 | 1010.7 |
| 20260503180616 | 67 | 87 | 2.0 | 6.0 | 0.00 | 0.00 | 0.00 | 67 | 1010.4 |
| 20260503180004 | 67 | 98 | 2.0 | 6.0 | 0.00 | 0.00 | 0.00 | 66 | 1010.6 |
| 20260503175603 | 68 | 97 | 0.0 | 6.0 | 0.00 | 0.00 | 0.00 | 66 | 1010.6 |
| 20260503175203 | 68 | 87 | 3.0 | 6.0 | 0.00 | 0.00 | 0.00 | 64 | 1010.5 |
| 20260503174803 | 69 | 94 | 1.0 | 7.0 | 0.00 | 0.00 | 0.00 | 63 | 1010.4 |
| 20260503174404 | 69 | 95 | 4.0 | 8.0 | 0.00 | 0.00 | 0.00 | 61 | 1010.6 |
| 20260503174003 | 70 | 86 | 2.0 | 8.0 | 0.00 | 0.00 | 0.00 | 61 | 1010.5 |
| 20260503173603 | 70 | 84 | 2.0 | 7.0 | 0.00 | 0.00 | 0.00 | 60 | 1010.3 |
| 20260503173203 | 70 | 83 | 3.0 | 8.0 | 0.00 | 0.00 | 0.00 | 59 | 1010.4 |
| 20260503172803 | 70 | 94 | 4.0 | 8.0 | 0.00 | 0.00 | 0.00 | 58 | 1010.6 |
| 20260503172615 | 71 | 92 | 4.0 | 8.0 | 0.00 | 0.00 | 0.00 | 58 | 1010.5 |
| 20260503172005 | 71 | 99 | 4.0 | 8.0 | 0.00 | 0.00 | 0.00 | 56 | 1010.4 |
| 20260503171604 | 71 | 105 | 5.0 | 8.0 | 0.00 | 0.00 | 0.00 | 55 | 1010.3 |
| 20260503171203 | 72 | 89 | 2.0 | 7.0 | 0.00 | 0.00 | 0.00 | 58 | 1010.4 |
| 20260503170803 | 72 | 81 | 4.0 | 8.0 | 0.00 | 0.00 | 0.00 | 57 | 1010.3 |
| 20260503170403 | 72 | 81 | 3.0 | 9.0 | 0.00 | 0.00 | 0.00 | 55 | 1010.3 |
| 20260503150804 | 75 | 83 | 4.0 | 11.0 | 0.00 | 0.00 | 0.00 | 50 | 1011.2 |
| 20260503150403 | 75 | 85 | 2.0 | 11.0 | 0.00 | 0.00 | 0.00 | 49 | 1011.2 |
| 20260503150217 | 75 | 85 | 7.0 | 11.0 | 0.00 | 0.00 | 0.00 | 47 | 1011.1 |
| 20260503131204 | 78 | 93 | 2.0 | 11.0 | 0.00 | 0.00 | 0.00 | 43 | 1011.8 |
| 20260503130803 | 78 | 99 | 5.0 | 11.0 | 0.00 | 0.00 | 0.00 | 43 | 1011.7 |
| 20260503130403 | 78 | 91 | 4.0 | 13.0 | 0.00 | 0.00 | 0.00 | 45 | 1011.7 |
| 20260503110803 | 78 | 77 | 3.0 | 7.0 | 0.00 | 0.00 | 0.00 | 34 | 1012.5 |
| 20260503110403 | 79 | 237 | 2.0 | 4.0 | 0.00 | 0.00 | 0.00 | 36 | 1012.5 |
| 20260503110215 | 79 | 220 | 2.0 | 4.0 | 0.00 | 0.00 | 0.00 | 33 | 1012.5 |
| 20260503090404 | 77 | 133 | 2.0 | 4.0 | 0.00 | 0.00 | 0.00 | 39 | 1007.2 |
| 20260503081603 | 72 | 269 | 0.0 | 4.0 | 0.00 | 0.00 | 0.00 | 46 | 1007.5 |
| 20260503081204 | 70 | 296 | 2.0 | 4.0 | 0.00 | 0.00 | 0.00 | 51 | 1007.4 |
| 20260503080803 | 72 | 308 | 1.0 | 2.0 | 0.00 | 0.00 | 0.00 | 50 | 1007.3 |
| 20260503080405 | 72 | 298 | 2.0 | 2.0 | 0.00 | 0.00 | 0.00 | 51 | 1007.4 |
| 20260503080215 | 71 | 293 | 1.0 | 2.0 | 0.00 | 0.00 | 0.00 | 51 | 1007.4 |
| 20260503072803 | 66 | 282 | 1.0 | 2.0 | 0.00 | 0.00 | 0.00 | 62 | 1007.6 |
| 20260503072403 | 66 | 300 | 1.0 | 4.0 | 0.00 | 0.00 | 0.00 | 63 | 1007.5 |
| 20260503072214 | 67 | 314 | 2.0 | 4.0 | 0.00 | 0.00 | 0.00 | 62 | 1007.6 |
| 20260503071604 | 67 | 293 | 2.0 | 4.0 | 0.00 | 0.00 | 0.00 | 63 | 1007.5 |
| 20260503071204 | 66 | 293 | 1.0 | 4.0 | 0.00 | 0.00 | 0.00 | 61 | 1007.7 |
| 20260503071017 | 65 | 288 | 1.0 | 4.0 | 0.00 | 0.00 | 0.00 | 64 | 1007.9 |
| 20260503070403 | 65 | 278 | 1.0 | 4.0 | 0.00 | 0.00 | 0.00 | 65 | 1007.5 |
| 20260503054803 | 58 | 288 | 0.0 | 2.0 | 0.00 | 0.00 | 0.00 | 75 | 1007.3 |
| 20260503054403 | 58 | 287 | 0.0 | 2.0 | 0.00 | 0.00 | 0.00 | 76 | 1007.5 |
| 20260503054003 | 57 | 307 | 0.0 | 2.0 | 0.00 | 0.00 | 0.00 | 77 | 1007.5 |
| 20260503053603 | 56 | 339 | 0.0 | 2.0 | 0.00 | 0.00 | 0.00 | 78 | 1007.5 |
| 20260503053203 | 56 | 4 | 0.0 | 2.0 | 0.00 | 0.00 | 0.00 | 79 | 1007.6 |
| 20260503052803 | 56 | 13 | 0.0 | 2.0 | 0.00 | 0.00 | 0.00 | 79 | 1007.5 |
| 20260503052403 | 55 | 21 | 1.0 | 2.0 | 0.00 | 0.00 | 0.00 | 80 | 1007.3 |
| 20260503052003 | 54 | 22 | 0.0 | 2.0 | 0.00 | 0.00 | 0.00 | 82 | 1007.3 |
| 20260503051603 | 53 | 0 | 0.0 | 0.0 | 0.00 | 0.00 | 0.00 | 85 | 1007.5 |
| 20260503051203 | 52 | 0 | 0.0 | 0.0 | 0.00 | 0.00 | 0.00 | 86 | 1007.4 |
| 20260503050803 | 52 | 0 | 0.0 | 0.0 | 0.00 | 0.00 | 0.00 | 86 | 1007.5 |
| 20260503050403 | 51 | 0 | 0.0 | 0.0 | 0.00 | 0.00 | 0.00 | 86 | 1007.4 |
| 20260503050217 | 51 | 0 | 0.0 | 0.0 | 0.00 | 0.00 | 0.00 | 86 | 1007.3 |
| 20260503045817 | 51 | 0 | 0.0 | 0.0 | 0.00 | 0.00 | 0.00 | 86 | 1007.2 |
| 20260503045203 | 50 | 0 | 0.0 | 0.0 | 0.00 | 0.00 | 0.00 | 86 | 1007.2 |
| 20260503044803 | 50 | 0 | 0.0 | 0.0 | 0.00 | 0.00 | 0.00 | 88 | 1007.5 |
| 20260503044403 | 49 | 0 | 0.0 | 0.0 | 0.00 | 0.00 | 0.00 | 88 | 1007.4 |
| 20260503044003 | 49 | 0 | 0.0 | 0.0 | 0.00 | 0.00 | 0.00 | 89 | 1007.5 |
| 20260503043603 | 49 | 0 | 0.0 | 0.0 | 0.00 | 0.00 | 0.00 | 89 | 1007.5 |
| 20260503043203 | 49 | 0 | 0.0 | 0.0 | 0.00 | 0.00 | 0.00 | 89 | 1007.5 |
| 20260503042803 | 49 | 0 | 0.0 | 0.0 | 0.00 | 0.00 | 0.00 | 89 | 1007.5 |
| 20260503042403 | 48 | 0 | 0.0 | 0.0 | 0.00 | 0.00 | 0.00 | 89 | 1007.4 |
| 20260503042003 | 48 | 0 | 0.0 | 0.0 | 0.00 | 0.00 | 0.00 | 89 | 1007.6 |
| 20260503041603 | 48 | 0 | 0.0 | 0.0 | 0.00 | 0.00 | 0.00 | 89 | 1007.5 |
| 20260503041415 | 48 | 0 | 0.0 | 0.0 | 0.00 | 0.00 | 0.00 | 88 | 1007.5 |
| 20260503040803 | 48 | 0 | 0.0 | 0.0 | 0.00 | 0.00 | 0.00 | 88 | 1007.5 |
| 20260503040404 | 48 | 0 | 0.0 | 0.0 | 0.00 | 0.00 | 0.00 | 88 | 1007.4 |
| 20260503040004 | 48 | 0 | 0.0 | 0.0 | 0.00 | 0.00 | 0.00 | 89 | 1007.5 |
| 20260503035603 | 48 | 0 | 0.0 | 0.0 | 0.00 | 0.00 | 0.00 | 90 | 1007.4 |
| 20260503035203 | 47 | 0 | 0.0 | 0.0 | 0.00 | 0.00 | 0.00 | 90 | 1007.4 |
| 20260503034803 | 47 | 0 | 0.0 | 0.0 | 0.00 | 0.00 | 0.00 | 89 | 1007.4 |
| 20260503034403 | 47 | 0 | 0.0 | 0.0 | 0.00 | 0.00 | 0.00 | 89 | 1007.4 |
| 20260503034003 | 48 | 0 | 0.0 | 0.0 | 0.00 | 0.00 | 0.00 | 88 | 1007.3 |
| 20260503033814 | 48 | 0 | 0.0 | 0.0 | 0.00 | 0.00 | 0.00 | 88 | 1007.2 |
| 20260503033413 | 48 | 0 | 0.0 | 0.0 | 0.00 | 0.00 | 0.00 | 88 | 1007.5 |
| 20260503032803 | 48 | 0 | 0.0 | 0.0 | 0.00 | 0.00 | 0.00 | 88 | 1007.4 |
| 20260503032403 | 49 | 0 | 0.0 | 0.0 | 0.00 | 0.00 | 0.00 | 87 | 1007.4 |
| 20260503032003 | 49 | 0 | 0.0 | 0.0 | 0.00 | 0.00 | 0.00 | 88 | 1007.3 |
| 20260503031603 | 48 | 0 | 0.0 | 0.0 | 0.00 | 0.00 | 0.00 | 88 | 1007.4 |
| 20260503031203 | 48 | 0 | 0.0 | 0.0 | 0.00 | 0.00 | 0.00 | 88 | 1007.3 |
| 20260503030803 | 48 | 0 | 0.0 | 0.0 | 0.00 | 0.00 | 0.00 | 88 | 1007.3 |
| 20260503030403 | 49 | 0 | 0.0 | 0.0 | 0.00 | 0.00 | 0.00 | 87 | 1007.4 |
| 20260503030213 | 49 | 0 | 0.0 | 0.0 | 0.00 | 0.00 | 0.00 | 87 | 1007.4 |
| 20260503025604 | 49 | 0 | 0.0 | 0.0 | 0.00 | 0.00 | 0.00 | 86 | 1007.5 |
| 20260503025203 | 49 | 0 | 0.0 | 0.0 | 0.00 | 0.00 | 0.00 | 86 | 1007.6 |
| 20260503024803 | 49 | 0 | 0.0 | 0.0 | 0.00 | 0.00 | 0.00 | 86 | 1007.8 |
| 20260503024403 | 50 | 0 | 0.0 | 0.0 | 0.00 | 0.00 | 0.00 | 85 | 1007.5 |
| 20260503024215 | 50 | 0 | 0.0 | 0.0 | 0.00 | 0.00 | 0.00 | 85 | 1007.5 |
| 20260503023603 | 50 | 0 | 0.0 | 0.0 | 0.00 | 0.00 | 0.00 | 83 | 1007.6 |
| 20260503023203 | 51 | 262 | 0.0 | 2.0 | 0.00 | 0.00 | 0.00 | 83 | 1007.6 |
| 20260503023013 | 51 | 262 | 0.0 | 2.0 | 0.00 | 0.00 | 0.00 | 82 | 1007.6 |
| 20260503022403 | 51 | 252 | 2.0 | 2.0 | 0.00 | 0.00 | 0.00 | 83 | 1007.6 |
| 20260503022003 | 50 | 0 | 0.0 | 0.0 | 0.00 | 0.00 | 0.00 | 85 | 1007.8 |
| 20260503021603 | 49 | 0 | 0.0 | 0.0 | 0.00 | 0.00 | 0.00 | 86 | 1007.7 |
| 20260503021203 | 49 | 0 | 0.0 | 0.0 | 0.00 | 0.00 | 0.00 | 85 | 1007.7 |
| 20260503020803 | 50 | 247 | 0.0 | 2.0 | 0.00 | 0.00 | 0.00 | 86 | 1007.5 |
| 20260503020403 | 49 | 247 | 0.0 | 2.0 | 0.00 | 0.00 | 0.00 | 86 | 1008.0 |
| 20260503020003 | 49 | 247 | 0.0 | 2.0 | 0.00 | 0.00 | 0.00 | 87 | 1007.8 |
| 20260503015603 | 49 | 0 | 0.0 | 0.0 | 0.00 | 0.00 | 0.00 | 86 | 1007.6 |
| 20260503015203 | 49 | 0 | 0.0 | 0.0 | 0.00 | 0.00 | 0.00 | 86 | 1007.8 |
| 20260503014804 | 49 | 0 | 0.0 | 0.0 | 0.00 | 0.00 | 0.00 | 85 | 1007.8 |
| 20260503014403 | 49 | 0 | 0.0 | 0.0 | 0.00 | 0.00 | 0.00 | 85 | 1007.7 |
| 20260503014003 | 49 | 0 | 0.0 | 0.0 | 0.00 | 0.00 | 0.00 | 85 | 1007.7 |
| 20260503013603 | 50 | 0 | 0.0 | 0.0 | 0.00 | 0.00 | 0.00 | 85 | 1007.7 |
| 20260503013203 | 50 | 0 | 0.0 | 0.0 | 0.00 | 0.00 | 0.00 | 84 | 1007.8 |
| 20260503012803 | 50 | 0 | 0.0 | 0.0 | 0.00 | 0.00 | 0.00 | 84 | 1007.9 |
| 20260503012403 | 50 | 0 | 0.0 | 0.0 | 0.00 | 0.00 | 0.00 | 84 | 1007.8 |
| 20260503012003 | 51 | 0 | 0.0 | 0.0 | 0.00 | 0.00 | 0.00 | 83 | 1007.8 |
| 20260503011603 | 50 | 0 | 0.0 | 0.0 | 0.00 | 0.00 | 0.00 | 83 | 1007.7 |
| 20260503011416 | 50 | 0 | 0.0 | 0.0 | 0.00 | 0.00 | 0.00 | 83 | 1007.8 |
| 20260503010803 | 51 | 0 | 0.0 | 0.0 | 0.00 | 0.00 | 0.00 | 82 | 1007.8 |
| 20260503010403 | 51 | 0 | 0.0 | 0.0 | 0.00 | 0.00 | 0.00 | 82 | 1008.0 |
| 20260503010003 | 51 | 0 | 0.0 | 0.0 | 0.00 | 0.00 | 0.00 | 82 | 1007.8 |
| 20260503005603 | 51 | 0 | 0.0 | 0.0 | 0.00 | 0.00 | 0.00 | 81 | 1007.9 |
| 20260503005413 | 51 | 0 | 0.0 | 0.0 | 0.00 | 0.00 | 0.00 | 81 | 1008.0 |
| 20260503005013 | 52 | 0 | 0.0 | 0.0 | 0.00 | 0.00 | 0.00 | 80 | 1007.6 |
| 20260503004403 | 52 | 0 | 0.0 | 0.0 | 0.00 | 0.00 | 0.00 | 79 | 1007.9 |
| 20260503004003 | 52 | 0 | 0.0 | 0.0 | 0.00 | 0.00 | 0.00 | 79 | 1008.0 |
| 20260503003603 | 53 | 0 | 0.0 | 0.0 | 0.00 | 0.00 | 0.00 | 79 | 1008.0 |
| 20260503003203 | 53 | 0 | 0.0 | 0.0 | 0.00 | 0.00 | 0.00 | 78 | 1008.0 |
| 20260503002803 | 53 | 0 | 0.0 | 0.0 | 0.00 | 0.00 | 0.00 | 78 | 1008.0 |
| 20260503002614 | 53 | 225 | 0.0 | 2.0 | 0.00 | 0.00 | 0.00 | 77 | 1008.2 |
| 20260503002003 | 54 | 213 | 0.0 | 2.0 | 0.00 | 0.00 | 0.00 | 76 | 1008.1 |
| 20260503001603 | 53 | 207 | 0.0 | 2.0 | 0.00 | 0.00 | 0.00 | 75 | 1008.2 |
| 20260503001203 | 53 | 0 | 0.0 | 0.0 | 0.00 | 0.00 | 0.00 | 76 | 1008.0 |
| 20260503000803 | 53 | 0 | 0.0 | 0.0 | 0.00 | 0.00 | 0.00 | 76 | 1008.1 |
| 20260503000403 | 53 | 0 | 0.0 | 0.0 | 0.00 | 0.00 | 0.00 | 76 | 1008.4 |
| 20260503000003 | 53 | 0 | 0.0 | 0.0 | 0.00 | 0.00 | 0.00 | 76 | 1008.3 |
| 20260502235603 | 54 | 0 | 0.0 | 0.0 | 0.00 | 0.00 | 0.00 | 76 | 1008.4 |
| 20260502235203 | 54 | 0 | 0.0 | 0.0 | 0.00 | 0.00 | 0.00 | 74 | 1008.5 |
| 20260502234803 | 53 | 0 | 0.0 | 0.0 | 0.00 | 0.00 | 0.00 | 75 | 1008.4 |
| 20260502234403 | 53 | 0 | 0.0 | 0.0 | 0.00 | 0.00 | 0.00 | 76 | 1008.5 |
| 20260502234003 | 53 | 0 | 0.0 | 0.0 | 0.00 | 0.00 | 0.00 | 76 | 1008.4 |
| 20260502233603 | 53 | 0 | 0.0 | 0.0 | 0.00 | 0.00 | 0.00 | 76 | 1008.4 |
| 20260502233416 | 53 | 0 | 0.0 | 0.0 | 0.00 | 0.00 | 0.00 | 77 | 1008.4 |
| 20260502232804 | 53 | 0 | 0.0 | 0.0 | 0.00 | 0.00 | 0.00 | 75 | 1008.5 |
| 20260502232403 | 53 | 0 | 0.0 | 0.0 | 0.00 | 0.00 | 0.00 | 74 | 1008.5 |
| 20260502232003 | 54 | 0 | 0.0 | 0.0 | 0.00 | 0.00 | 0.00 | 73 | 1008.5 |
| 20260502231603 | 54 | 0 | 0.0 | 0.0 | 0.00 | 0.00 | 0.00 | 74 | 1008.3 |
| 20260502231203 | 54 | 0 | 0.0 | 0.0 | 0.00 | 0.00 | 0.00 | 74 | 1008.6 |
| 20260502231017 | 54 | 0 | 0.0 | 0.0 | 0.00 | 0.00 | 0.00 | 74 | 1008.5 |
| 20260502230403 | 54 | 0 | 0.0 | 0.0 | 0.00 | 0.00 | 0.00 | 72 | 1008.6 |
| 20260502230004 | 54 | 0 | 0.0 | 0.0 | 0.00 | 0.00 | 0.00 | 71 | 1008.7 |
| 20260502225603 | 54 | 0 | 0.0 | 0.0 | 0.00 | 0.00 | 0.00 | 72 | 1008.5 |
| 20260502225203 | 54 | 0 | 0.0 | 0.0 | 0.00 | 0.00 | 0.00 | 72 | 1008.6 |
| 20260502224803 | 55 | 0 | 0.0 | 0.0 | 0.00 | 0.00 | 0.00 | 71 | 1008.6 |
| 20260502224403 | 55 | 0 | 0.0 | 0.0 | 0.00 | 0.00 | 0.00 | 71 | 1008.8 |
| 20260502224003 | 55 | 0 | 0.0 | 0.0 | 0.00 | 0.00 | 0.00 | 70 | 1008.6 |
| 20260502223817 | 55 | 0 | 0.0 | 0.0 | 0.00 | 0.00 | 0.00 | 69 | 1008.6 |
| 20260502223203 | 56 | 0 | 0.0 | 0.0 | 0.00 | 0.00 | 0.00 | 69 | 1008.6 |
| 20260502222804 | 55 | 0 | 0.0 | 0.0 | 0.00 | 0.00 | 0.00 | 70 | 1008.9 |